Flag for Germany Weather past 2 weeks in Demmin, Mecklenburg-Western Pomerania, Germany

Now
59 °F

Overcast.


Feels Like: 59 °F
Forecast: 51 / 78 °F
Wind: 2 mph from West

Location: Greifswald

Current Time: Jun 30, 2015 at 7:53:26 AM

Latest Report: Jun 30, 2015 at 7:00 AM


Visibility: 16 mi

Pressure: 30.18 "Hg

Humidity: 87%

Dew point: 55 °F

Location of DemminLocation

Historic Weather in Demmin — Graph

°F

Demmin temperature yesterday

Maximum temperature yesterday: 74 °F (at 4:00 PM)
Minimum temperature yesterday: 56 °F (at 6:00 AM)
Average temperature yesterday: 64 °F

Past Weeks' High & Low Weather Summary

 TemperatureHumidityPressure
High74 °F (Jun 29, 4:00 PM)99% (Jun 26, 3:00 AM)30.23 "Hg (Jun 26, 3:00 AM)
Low46 °F (Jun 17, 4:00 AM)43% (Jun 17, 3:00 PM)29.61 "Hg (Jun 23, 4:00 AM)
Average58 °F77%29.99 "Hg
* Reported Jun 15 6:00 AM — Jun 30 6:00 AM, Demmin, Weather by CustomWeather, © 2015

Note: Actual official high and low records may vary slightly from our data, if they occured in-between our weather recording intervals... More about our weather records

Advertising

Demmin weather history for previous 24 hours

 ConditionsComfort  
Time TempWeatherWind HumidityBarometerVisibility
6:00 AM
Tue, Jun 30
57 °FOvercast.3 mph90%30.16 "Hg7 mi
5:00 AM56 °FPartly sunny.3 mph93%30.15 "Hg11 mi
4:00 AM57 °FPassing clouds.2 mph89%30.15 "Hg12 mi
3:00 AM59 °FPassing clouds.3 mph85%30.15 "Hg14 mi
2:00 AM60 °FOvercast.2 mph83%30.15 "Hg14 mi
1:00 AM61 °FOvercast.2 mph81%30.15 "Hg16 mi
12:00 AM62 °FPassing clouds.2 mph80%30.15 "Hg19 mi
10:00 PM
Mon, Jun 29
65 °FPassing clouds.2 mph72%30.14 "Hg19 mi
9:00 PM68 °FPartly sunny.2 mph65%30.13 "Hg28 mi
8:00 PM68 °FPartly sunny.1 mph66%30.12 "Hg28 mi
7:00 PM70 °FPartly sunny.3 mph59%30.12 "Hg25 mi
6:00 PM71 °FScattered clouds.5 mph60%30.12 "Hg22 mi
4:00 PM74 °FPartly sunny.2 mph48%30.09 "Hg25 mi
3:00 PM73 °FScattered clouds.3 mph51%30.10 "Hg22 mi
2:00 PM72 °FPartly sunny.3 mph54%30.11 "Hg22 mi
1:00 PM72 °FPartly sunny.3 mph50%30.11 "Hg22 mi
12:00 PM71 °FPassing clouds.3 mph57%30.12 "Hg16 mi
10:00 AM66 °FScattered clouds.2 mph72%30.12 "Hg22 mi
9:00 AM60 °FPartly sunny.1 mph88%30.13 "Hg19 mi
8:00 AM57 °FOvercast.2 mph97%30.13 "Hg7 mi
7:00 AM57 °FOvercast.1 mph98%30.14 "Hg3 mi
Weather by CustomWeather, © 2015

See weather overviewHow to use our weather pages